Other Public Products
Issued by NWS Grand Forks, ND

Home | Current Version | Previous Version | Text Only | Print | Product List | Glossary On
Versions: 1 2 3 4 5 6 7 8 9 10 11 12 13 14 15 16 17 18 19 20 21 22 23 24 25 26 27 28 29 30 31 32 33 34 35 36 37 38 39 40 41 42 43 44 45 46 47 48 49 50
000
FPUS83 KFGF 240831
OPUFGF
PRAIRIE TO PINES WEATHER ROUNDUP
NATIONAL WEATHER SERVICE EASTERN NORTH DAKOTA/GRAND FORKS ND
300 AM CDT FRI OCT 24 2014

 **SATELLITE DATA USED TO AUGMENT SKY COVER AT AUTOMATED STATIONS**
 *****  WEATHER ACROSS EASTERN NORTH DAKOTA  *****

CITY           SKY/WX    TMP DP  RH WIND       PRES   REMARKS
GRAND FORKS    MOCLDY    43  37  79 S6        29.74F
GRAND FORKS AF MOCLDY    52  38  57 SW8       29.75S
GRAND CITY NWS   N/A     43 N/A N/A SW3         N/A
BUXTON           N/A     47  42  82 S6          N/A
DEVILS LAKE    CLOUDY    52  36  54 SW9       29.74S
FARGO          MOCLDY    51  43  74 S9        29.81S
WAHPETON ARPT  CLOUDY    43  36  75 SE5       29.83F
$$

 *****  WEATHER ACROSS CENTRAL AND WESTERN NORTH DAKOTA  *****

CITY           SKY/WX    TMP DP  RH WIND       PRES   REMARKS
JAMESTOWN      CLOUDY    47  37  68 S5        29.79S
BISMARCK       CLOUDY    41  32  70 SE3       29.81F
MINOT          MOCLDY    53  33  46 SW13      29.75R
MINOT AFB      MOCLDY    51  36  56 W12       29.74R
GARRISON         N/A     46  38  73 W7        29.78S
WILLISTON      MOCLDY    44  35  70 S3        29.79S
DICKINSON      CLOUDY    47  32  56 W6        29.82R
HETTINGER      MOCLDY    39  29  67 CALM      29.87S
$$

 *****  OTHER OBSERVATIONS NORTHEAST NORTH DAKOTA  *****

CITY           SKY/WX    TMP DP  RH WIND       PRES   REMARKS
WALHALLA         N/A     54  37  54 W5        29.71S
LANGDON        FAIR      41  36  81 SW9       29.73S
CAVALIER       FAIR      50  39  66 W3        29.71S
GRAFTON        FAIR      50  39  66 SW12      29.72S
CANDO          FAIR      41  36  81 SW7       29.76R
FORT TOTTEN      N/A     50  33  52 S5        29.95S
ROLLA          FAIR      45  36  70 SW7       29.74R
RUGBY          FAIR      46  37  71 SW5       29.75S
 ***** THE ABOVE OBSERVATIONS ARE NON NWS ARE NOT QUALITY
        CONTROLLED AND MAY MIS-REPORT RAIN FOR SNOW...
$$

 *****  OTHER OBSERVATIONS SOUTHEAST NORTH DAKOTA *****

CITY           SKY/WX    TMP DP  RH WIND       PRES   REMARKS
COOPERSTOWN    NOT AVBL
VALLEY CITY    FAIR      41  41 100 S8        29.80S
OAKES            N/A     45  45 100 S9        29.83R
GWINNER        SUNNY     50  45  81 SW9       29.83F
SHEYENNE NWR     N/A     44  42  92 SW5       29.95S
BUFFALO          N/A     49  37  63 SW6         N/A
WYNDMERE         N/A     43  43 100 W2          N/A
 ***** THE ABOVE OBSERVATIONS ARE NON NWS ARE NOT QUALITY
       CONTROLLED AND MAY MIS-REPORT RAIN FOR SNOW...
$$

  *****  WEATHER ACROSS NORTHERN MINNESOTA  *****

CITY           SKY/WX    TMP DP  RH WIND       PRES   REMARKS
FLAG ISLAND    CLOUDY    50  45  81 SE8       29.72F
WARROAD        CLOUDY    52  43  71 S3        29.73F
ROSEAU         CLOUDY    52  43  71 S12       29.72F
HALLOCK        MOCLDY    46  39  76 S9        29.71F
THF RVR FALLS  PTCLDY    50  41  71 S7        29.77S
HALSTAD          N/A     46  41  84 S8          N/A
FOSSTON        PTCLDY    50  43  76 S9        29.80F
BAUDETTE       CLOUDY    51  40  65 S6        29.76F
WASKISH        CLOUDY    55  43  62 CALM      29.78F
CROOKSTON      MOCLDY    48  43  81 S12       29.77S
$$
  *****  WEATHER ACROSS CENTRAL AND WEST MINNESOTA  *****

CITY           SKY/WX    TMP DP  RH WIND       PRES   REMARKS
BEMIDJI        CLOUDY    55  43  62 S7        29.82S
PARK RAPIDS    CLOUDY    50  41  71 S6        29.85S
WADENA         MOCLDY    48  43  81 S3        29.85F
DETROIT LAKES  PTCLDY    52  45  76 S6        29.84F
MOORHEAD       MOCLDY    46  45  93 S7        29.83R
FERGUS FALLS   MOCLDY    48  39  71 SE7       29.85F
ELBOW LAKE     FAIR      47  42  84 SE8       29.85S
MORRIS MN      MOCLDY    46  43  87 SE9       29.84F
STAPLES        MOCLDY    48  41  76 S6        29.87S
WHEATON        MOCLDY    41  39  93 SE7       29.85F
$$
  *****  WEATHER ELSEWHERE ACROSS MINNESOTA  *****

CITY           SKY/WX    TMP DP  RH WIND       PRES   REMARKS
DULUTH         MOCLDY    49  46  90 SW12      29.91S FOG
INTRNTL FALLS  CLOUDY    51  40  65 VRB3      29.79S
ELY            MOCLDY    48  45  87 S6        29.87S
CLOQUET        CLOUDY    48  46  93 S8        29.92S FOG
BRAINERD       MOCLDY    46  39  76 S6        29.90R
HIBBING        FOG       37  35  92 CALM      29.89R VSB 1/2
ALEXANDRIA     MOCLDY    50  43  77 S8        29.88F
SAINT CLOUD    MOCLDY    48  40  73 SE3       29.92R
MINNEAPOLIS    MOCLDY    47  45  93 E8        29.95F
$$

  *****  WEATHER ACROSS SOUTH DAKOTA  *****

CITY           SKY/WX    TMP DP  RH WIND       PRES   REMARKS
SIOUX FALLS    MOCLDY    55  50  83 S12       29.87F
BROOKINGS      NOT AVBL
WATERTOWN      CLOUDY    47  44  90 SE8       29.85S
HURON          CLOUDY    47  44  90 SE3       29.83S
SISSETON         N/A     55  48  77 VRB5      29.82F
ABERDEEN       CLOUDY    39  38  96 SW3       29.84S
MITCHELL       MOCLDY    48  47  96 S5        29.84S
PIERRE         MOCLDY    42  35  76 W5        29.85F
MOBRIDGE       MOCLDY    45  40  82 E5        29.82F
RAPID CITY     CLOUDY    47  33  58 NW6       29.91F
$$

  *****  SOME WEATHER IN NEARBY STATES *****

CITY           SKY/WX    TMP DP  RH WIND       PRES   REMARKS
GLASGOW MT     LGT RAIN  49  41  74 E3        29.80R
GREAT FALLS MT CLEAR     48  36  63 SW18      29.87R
CHEYENNE WY    CLOUDY    50  30  46 W12       30.16R
SCOTTSBLUFF NE CLOUDY    45  37  73 CALM      30.02R
OMAHA NE       NOT AVBL
DES MOINES IA  FOG       51  49  92 S8        30.03S VSB 1/4
DAVENPORT IA   FOG       43  42  97 CALM      30.06R VSB 1/4
CHICAGO IL     CLOUDY    54  44  69 SW5       30.04S
EAU CLAIRE WI  CLOUDY    49  48  97 S6        29.99S FOG
LA CROSSE WI   CLOUDY    51  50  96 S5        30.03F FOG
$$

  *****  SOME NATIONAL WEATHER *****

CITY           SKY/WX    TMP DP  RH WIND       PRES   REMARKS
LA GUARDIA NY  CLOUDY    52  44  74 NW17      29.77R
RALEIGH NC     PTCLDY    47  41  80 CALM      30.01R
ATLANTA GA     MOCLDY    50  44  80 NW5       30.03S
NEW ORLEANS LA PTCLDY    61  51  70 NE9       30.07S
OKLAHOMA CITY  PTCLDY    58  55  90 S6        30.09S
ALBUQUERQUE NM CLEAR     57  37  47 CALM      30.28F
SALT LAKE CITY MOCLDY    54  39  57 CALM      30.10R
LOS ANGELES CA PTCLDY    67  67 100 NW3       29.97R
BOISE ID       CLOUDY    52  49  89 SE3       30.09R
SEATTLE WA     LGT RAIN  49  45  86 S5        30.03R
$$

*** WEATHER ACROSS MANITOBA...SASKATCHEWAN AND ONTARIO ***
                ***ONTARIO***

CITY           SKY/WX    TMP DP  RH WIND       PRES   REMARKS
GERALDTON      FOG       45  45 100 SW6       29.89S VSB 1
THUNDER BAY    CLOUDY    46  45  93 E3        29.91F
SIOUX LOOKOUT  PTCLDY    46  43  87 S7        29.77S
TORONTO        CLEAR     41  36  81 NW9       30.04S
BIG TROUT LK   CLOUDY    46  45  93 S5        29.69F
PICKLE LAKE    NOT AVBL
DRYDEN         MOCLDY    46  39  76 S9        29.76S
KENORA         MOCLDY    50  39  66 S8        29.74S
$$
                *** MANITOBA***

CITY           SKY/WX    TMP DP  RH WIND       PRES   REMARKS
BRANDON        MOCLDY    41  36  81 W7        29.70S
DAUPHIN        CLEAR     52  39  62 W10       29.61S
ISLAND LAKE    CLOUDY    48  46  93 S6        29.63R
PILOT MOUND      N/A     45  34  65 SW5         N/A
THE PAS        FOG       45  45 100 S10       29.50F VSB 3/8
THOMPSON       DRIZZLE  N/A N/A N/A W2          N/A  FOG
WINNIPEG       MOCLDY    50  37  62 S12       29.69S
LYNN LAKE      LGT RAIN  36  36 100 SE7       29.52F VSB 1
CHURCHILL      LGT RAIN  37  37 100 E29G37    29.64F
GILLAM         FOG       39  39 100 SW5       29.57F VSB 1/2
$$
                ***SASKATCHEWAN***

CITY           SKY/WX    TMP DP  RH WIND       PRES   REMARKS
ESTEVAN        MOCLDY    46  39  76 SW9       29.72F
KINDERSLEY     PTCLDY    43  37  81 SW6       29.59R
LLOYDMINSTER   NOT AVBL
PRINCE ALBERT  CLOUDY    36  36 100 SW2       29.51R
REGINA         MOCLDY    45  41  87 SW7       29.68R



USA.gov is the U.S. government's official web portal to all federal, state and local government web resources and services.